[[{"header":{"parameterUnit":"m.s-1","parameterCategory":2,"la1":30.2992,"la2":30.254,"lo1":-89.0895,"lo2":-89.0443,"dy":0.0025,"dx":0.0025,"nx":19,"ny":19,"refTime":"2026-05-05T03:00:00:Z","depth":"0","parameterNumber":2,"parameterNumberName":"U-component_of_CURRENTS"},"data":[0,0,0,0.1344,0.1344,0.1359,0.1359,0.1532,0.1534,0,0,0,0,0,0,0,0,0,0,0,0.1341,0.1341,0.1344,0.1344,0.1359,0.1359,0.1532,0.1534,0,0,0,0,0,0,0,0,0,0,0,0.1341,0.1341,0.1341,0.1344,0.1359,0.1359,0.1531,0.1482,0,0,0,0,0,0,0,0,0,0,0.1449,0.1421,0.1341,0.1341,0.1344,0.1359,0.1359,0.1478,0.1485,0.1568,0,0.1567,0,0.1558,0.1549,0.1549,0,0,0,0.1347,0.1415,0.1421,0.1341,0.1344,0.1359,0.1353,0.1481,0.1489,0.1579,0.1569,0.1574,0.1561,0.155,0.1551,0.1793,0.1794,0,0,0.1346,0.1348,0.1415,0.1426,0.1348,0.1352,0.1353,0.1484,0.1497,0.157,0.1578,0.1563,0.1552,0.1553,0.1793,0.1794,0,0,0,0.1342,0.1347,0.1347,0.142,0.1412,0.1353,0.1354,0.149,0.149,0.1579,0.1566,0.1553,0.1556,0.1791,0.1793,0.1859,0,0,0,0.1341,0.1344,0.1346,0.1348,0.1408,0.143,0.1357,0.1481,0.1495,0.1565,0.1553,0.1558,0.179,0.1792,0.1854,0.1882,0,0,0,0.134,0.1344,0.1345,0.1348,0.1353,0.1427,0.1433,0.1482,0.1488,0.155,0.1558,0.179,0.1792,0.1851,0.1876,0.194,0,0,0,0.1343,0.1353,0.1345,0.137,0.1352,0.1416,0.1432,0.1485,0.1537,0.1554,0.179,0.1793,0.185,0.1872,0.1936,0.1802,0.181,0,0,0.1358,0.1355,0.1374,0.1367,0.1432,0.1414,0.1517,0.158,0.1608,0.1756,0.1761,0.1856,0.1875,0.1939,0.1938,0.1941,0,0,0,0.1381,0.1402,0.142,0.1456,0.1488,0.1559,0.1598,0.1647,0.1766,0.1648,0.1886,0.1896,0.1934,0.1846,0.185,0.1677,0.1804,0.1803,0.1803,0.1413,0.1442,0.1505,0.1556,0.16,0.1676,0.1753,0.1838,0.1842,0.1909,0.1972,0.2095,0.2003,0.2004,0.1829,0.1998,0.1998,0.1998,0.1999,0.1492,0.1545,0.1593,0.166,0.173,0.1814,0.1944,0.1968,0.2115,0.2075,0.2109,0.1946,0.2011,0.1823,0.2003,0.2003,0.2002,0.2002,0.2001,0.1534,0.1569,0.1607,0.1718,0.1816,0.1892,0.2021,0.2106,0.2179,0.2239,0.2131,0.2127,0.1941,0.2247,0.2248,0.2248,0.2249,0.2249,0.2249,0.1567,0.1615,0.1682,0.1777,0.183,0.1923,0.2066,0.2151,0.2206,0.2201,0.22,0.1958,0.2171,0.2138,0.2256,0.2255,0.2254,0.2253,0.2253,0.1665,0.1647,0.1747,0.1799,0.1907,0.1943,0.2063,0.213,0.2216,0.2218,0.194,0.2185,0.2151,0.2145,0.2112,0.2217,0.2217,0.2217,0.2217,0.1711,0.1718,0.1816,0.1878,0.1945,0.1964,0.1967,0.1982,0.1922,0.1801,0.1831,0.1707,0.1716,0.165,0.1656,0.161,0.1586,0.1585,0.1584,0.1807,0.1811,0.1876,0.1898,0.195,0.195,0.1856,0.1678,0.152,0.1546,0.1626,0.1653,0.1459,0.1487,0.1372,0.1393,0.1315,0,0]},{"header":{"parameterUnit":"m.s-1","parameterCategory":2,"la1":30.2992,"la2":30.254,"lo1":-89.0895,"lo2":-89.0443,"dy":0.0025,"dx":0.0025,"nx":19,"ny":19,"refTime":"2026-05-05T03:00:00:Z","depth":"0","parameterNumber":3,"parameterNumberName":"V-component_of_CURRENTS"},"data":[0,0,0,0.0163,0.0163,0.0193,0.0193,0.0361,0.0363,0,0,0,0,0,0,0,0,0,0,0,0.0156,0.0156,0.0163,0.0163,0.0193,0.0193,0.036,0.0363,0,0,0,0,0,0,0,0,0,0,0,0.0156,0.0156,0.0156,0.0163,0.0193,0.0193,0.036,0.0308,0,0,0,0,0,0,0,0,0,0,0.0264,0.0233,0.0156,0.0156,0.0163,0.0192,0.0193,0.0304,0.0311,0.0381,0,0.0379,0,0.0372,0.0376,0.0377,0,0,0,0.0173,0.0227,0.0235,0.0156,0.0163,0.0192,0.0182,0.0307,0.0315,0.0391,0.0381,0.0386,0.0375,0.0377,0.0378,0.0642,0.0644,0,0,0.0172,0.0168,0.0229,0.024,0.0166,0.0181,0.0183,0.0311,0.0321,0.0381,0.0389,0.0378,0.0378,0.038,0.0641,0.0643,0,0,0,0.016,0.0167,0.017,0.0234,0.0228,0.0182,0.0184,0.0315,0.0315,0.0391,0.038,0.038,0.0382,0.0639,0.0642,0.0682,0,0,0,0.0159,0.0159,0.0169,0.0168,0.0224,0.0253,0.0185,0.0306,0.032,0.0379,0.038,0.0384,0.0638,0.0641,0.0678,0.0727,0,0,0,0.0156,0.0159,0.0159,0.0167,0.0174,0.025,0.0258,0.0308,0.0314,0.0377,0.0384,0.0637,0.064,0.0674,0.072,0.0835,0,0,0,0.0155,0.0161,0.0159,0.017,0.0174,0.0219,0.0256,0.0301,0.0351,0.0381,0.0638,0.0641,0.0672,0.0715,0.083,0.0805,0.0828,0,0,0.0164,0.0162,0.017,0.0168,0.0187,0.0216,0.0314,0.0388,0.0438,0.0603,0.0608,0.0679,0.0719,0.0834,0.0999,0.1016,0,0,0,0.0173,0.0172,0.0181,0.0188,0.0222,0.0319,0.0368,0.0455,0.0612,0.0482,0.0737,0.0763,0.0833,0.0808,0.0823,0.0822,0.0657,0.0657,0.0656,0.0174,0.0181,0.0197,0.0222,0.0277,0.0399,0.0524,0.0669,0.0667,0.0768,0.0836,0.1012,0.0986,0.0997,0.0996,0.0867,0.0868,0.0868,0.0868,0.017,0.0177,0.0219,0.0237,0.035,0.0454,0.071,0.0776,0.1017,0.0963,0.1028,0.0903,0.1015,0.1009,0.0871,0.0871,0.087,0.087,0.087,0.0159,0.0165,0.0174,0.0236,0.0382,0.054,0.082,0.0975,0.1081,0.1175,0.1169,0.1167,0.1129,0.1197,0.1198,0.1199,0.1199,0.12,0.12,0.0138,0.0151,0.02,0.0268,0.0382,0.0596,0.0912,0.1082,0.1235,0.1264,0.1264,0.121,0.1114,0.1063,0.1212,0.121,0.1208,0.1207,0.1206,0.0136,0.0141,0.0236,0.0329,0.0587,0.0829,0.1047,0.1305,0.1439,0.1492,0.1382,0.1329,0.133,0.1317,0.1274,0.1469,0.1469,0.1469,0.1469,0.015,0.0147,0.0329,0.0531,0.0774,0.0986,0.1295,0.1448,0.1511,0.1496,0.1492,0.1377,0.1366,0.1363,0.1349,0.1305,0.1504,0.1504,0.1504,0.0183,0.0236,0.0403,0.0582,0.0883,0.1142,0.139,0.1505,0.15,0.1506,0.1507,0.1505,0.1333,0.1316,0.1298,0.1277,0.1199,0,0]}],[{"header":{"parameterUnit":"m.s-1","parameterCategory":2,"la1":30.2992,"la2":30.254,"lo1":-89.0895,"lo2":-89.0443,"dy":0.0025,"dx":0.0025,"nx":19,"ny":19,"refTime":"2026-05-05T03:00:00:Z","depth":"2","parameterNumber":2,"parameterNumberName":"U-component_of_CURRENTS"},"data":[0,0,0,0.13,0.1301,0.132,0.132,0.149,0.1492,0,0,0,0,0,0,0,0,0,0,0,0.1296,0.1296,0.13,0.1301,0.132,0.132,0.1489,0.1492,0,0,0,0,0,0,0,0,0,0,0,0.1296,0.1296,0.1296,0.1301,0.132,0.132,0.1489,0.1439,0,0,0,0,0,0,0,0,0,0,0.1402,0.1375,0.1296,0.1296,0.1301,0.132,0.132,0.1435,0.1442,0.1522,0,0.1522,0,0.1514,0.1506,0.1507,0,0,0,0.1302,0.1369,0.1376,0.1296,0.1301,0.132,0.1312,0.1438,0.1446,0.1532,0.1524,0.1529,0.1517,0.1507,0.1508,0.1754,0.1755,0,0,0.1301,0.1304,0.1369,0.1381,0.1307,0.1311,0.1312,0.1441,0.1454,0.1525,0.1533,0.152,0.1509,0.151,0.1753,0.1754,0,0,0,0.1297,0.1303,0.1303,0.1375,0.1368,0.1312,0.1313,0.1448,0.1448,0.1534,0.1522,0.151,0.1513,0.1752,0.1754,0.1813,0,0,0,0.1297,0.13,0.1303,0.1305,0.1365,0.1388,0.1317,0.1438,0.1452,0.1521,0.151,0.1515,0.1751,0.1753,0.1809,0.1845,0,0,0,0.1294,0.13,0.1302,0.1305,0.1312,0.1385,0.1392,0.144,0.1446,0.1507,0.1515,0.175,0.1752,0.1805,0.1839,0.1901,0,0,0,0.1297,0.1308,0.1302,0.1327,0.1311,0.1376,0.139,0.1446,0.1497,0.1511,0.1751,0.1753,0.1804,0.1835,0.1897,0.1707,0.1711,0,0,0.1312,0.131,0.1328,0.1323,0.1391,0.1373,0.1475,0.1538,0.157,0.1717,0.1721,0.181,0.1838,0.19,0.1854,0.1853,0,0,0,0.1335,0.136,0.1378,0.1417,0.1447,0.1521,0.1557,0.1605,0.1725,0.1611,0.1846,0.1862,0.1899,0.1776,0.1777,0.1766,0.1765,0.1765,0.1765,0.1373,0.14,0.1467,0.152,0.1565,0.1639,0.1717,0.1802,0.18,0.1869,0.1936,0.2061,0.1932,0.193,0.196,0.196,0.1961,0.1961,0.1961,0.1456,0.1511,0.1561,0.1633,0.1702,0.1785,0.1911,0.1933,0.2079,0.2038,0.207,0.1877,0.1933,0.1967,0.1966,0.1965,0.1964,0.1964,0.1963,0.15,0.1538,0.1579,0.1694,0.1796,0.187,0.2,0.2083,0.2149,0.221,0.2062,0.2057,0.2085,0.2213,0.2213,0.2214,0.2214,0.2215,0.2215,0.1534,0.1585,0.1657,0.1759,0.1815,0.1911,0.2053,0.2133,0.2157,0.2132,0.2129,0.2146,0.2138,0.2101,0.2222,0.2221,0.222,0.2219,0.2219,0.1636,0.1616,0.1726,0.1782,0.1896,0.1925,0.2047,0.2078,0.2152,0.2127,0.2088,0.2088,0.2053,0.2049,0.2011,0.2102,0.2102,0.2102,0.2102,0.168,0.1689,0.1797,0.1865,0.1935,0.1944,0.1897,0.1806,0.184,0.177,0.1784,0.1655,0.1667,0.1604,0.161,0.156,0.1535,0.1534,0.1533,0.1775,0.1786,0.1856,0.1887,0.1942,0.1923,0.1743,0.1396,0.1282,0.1512,0.1701,0.2061,0.1904,0.191,0.1836,0.1837,0.1767,0,0]},{"header":{"parameterUnit":"m.s-1","parameterCategory":2,"la1":30.2992,"la2":30.254,"lo1":-89.0895,"lo2":-89.0443,"dy":0.0025,"dx":0.0025,"nx":19,"ny":19,"refTime":"2026-05-05T03:00:00:Z","depth":"2","parameterNumber":3,"parameterNumberName":"V-component_of_CURRENTS"},"data":[0,0,0,0.0062,0.0062,0.0097,0.0097,0.0257,0.0259,0,0,0,0,0,0,0,0,0,0,0,0.0054,0.0054,0.0062,0.0063,0.0097,0.0097,0.0257,0.0259,0,0,0,0,0,0,0,0,0,0,0,0.0054,0.0054,0.0054,0.0063,0.0097,0.0097,0.0257,0.0204,0,0,0,0,0,0,0,0,0,0,0.0157,0.0128,0.0054,0.0054,0.0063,0.0097,0.0097,0.02,0.0207,0.0272,0,0.0272,0,0.0267,0.0271,0.0272,0,0,0,0.0072,0.0122,0.0131,0.0054,0.0063,0.0096,0.0084,0.0203,0.0212,0.0282,0.0274,0.0279,0.027,0.0273,0.0274,0.053,0.0531,0,0,0.007,0.0067,0.0125,0.0136,0.0068,0.0083,0.0085,0.0207,0.0218,0.0274,0.0282,0.0272,0.0274,0.0275,0.0528,0.053,0,0,0,0.0058,0.0065,0.0069,0.013,0.0126,0.0084,0.0086,0.0212,0.0213,0.0283,0.0274,0.0275,0.0277,0.0527,0.0529,0.0565,0,0,0,0.0058,0.0058,0.0068,0.0067,0.0122,0.0153,0.0088,0.0204,0.0217,0.0273,0.0275,0.0279,0.0525,0.0528,0.0561,0.0617,0,0,0,0.0053,0.0057,0.0059,0.0067,0.0076,0.015,0.0158,0.0206,0.0212,0.0272,0.028,0.0524,0.0527,0.0557,0.061,0.0726,0,0,0,0.0052,0.0059,0.0059,0.007,0.0076,0.012,0.0156,0.0201,0.0249,0.0276,0.0525,0.0529,0.0556,0.0605,0.0721,0.0663,0.0684,0,0,0.006,0.006,0.0067,0.0068,0.0086,0.0116,0.021,0.0283,0.0334,0.0491,0.0496,0.0562,0.0609,0.0725,0.0856,0.0871,0,0,0,0.007,0.007,0.0079,0.0087,0.0119,0.0216,0.0263,0.0346,0.0499,0.0376,0.0621,0.0651,0.0722,0.0677,0.069,0.0545,0.0544,0.0544,0.0543,0.0074,0.0079,0.0095,0.012,0.0174,0.0293,0.0415,0.0555,0.055,0.0649,0.0721,0.0896,0.0849,0.0858,0.0748,0.0748,0.0748,0.0748,0.0749,0.007,0.0076,0.0119,0.0138,0.0249,0.0351,0.0596,0.066,0.0896,0.0842,0.0907,0.0768,0.0874,0.0753,0.0752,0.0751,0.0751,0.0751,0.075,0.0059,0.0066,0.0077,0.014,0.0287,0.0442,0.0716,0.0866,0.0965,0.1059,0.1035,0.1033,0.0926,0.1083,0.1083,0.1084,0.1085,0.1085,0.1086,0.0039,0.0052,0.0105,0.0174,0.029,0.0504,0.0816,0.0981,0.1116,0.113,0.1129,0.1011,0.1,0.095,0.1098,0.1096,0.1094,0.1093,0.1092,0.0036,0.0037,0.0141,0.0237,0.0498,0.0733,0.095,0.1189,0.1316,0.1353,0.1187,0.118,0.1182,0.1169,0.1126,0.1312,0.1312,0.1312,0.1312,0.0043,0.004,0.0232,0.0441,0.0686,0.0889,0.1165,0.1245,0.128,0.1214,0.1218,0.1081,0.1075,0.1063,0.1053,0.1004,0.1158,0.1158,0.1158,0.0067,0.013,0.0303,0.0494,0.0797,0.1043,0.1233,0.118,0.1067,0.115,0.1175,0.1305,0.1107,0.1096,0.1074,0.1059,0.0979,0,0]}],[{"header":{"parameterUnit":"m.s-1","parameterCategory":2,"la1":30.2992,"la2":30.254,"lo1":-89.0895,"lo2":-89.0443,"dy":0.0025,"dx":0.0025,"nx":19,"ny":19,"refTime":"2026-05-05T03:00:00:Z","depth":"4","parameterNumber":2,"parameterNumberName":"U-component_of_CURRENTS"},"data":[0,0,0,0.0606,0.0606,0.0635,0.0635,0.0703,0.0703,0,0,0,0,0,0,0,0,0,0,0,0.0606,0.0606,0.0606,0.0606,0.0635,0.0635,0.0702,0.0703,0,0,0,0,0,0,0,0,0,0,0,0.0605,0.0606,0.0606,0.0606,0.0634,0.0635,0.0702,0.0674,0,0,0,0,0,0,0,0,0,0,0.0644,0.064,0.0606,0.0606,0.0607,0.0634,0.0635,0.0673,0.0676,0.0697,0,0.0706,0,0.0701,0.0708,0.0708,0,0,0,0.0612,0.0637,0.0639,0.0606,0.0607,0.0634,0.0623,0.0674,0.0678,0.0702,0.0707,0.0709,0.0702,0.0708,0.0709,0.0755,0.0755,0,0,0.061,0.0616,0.0637,0.0642,0.0621,0.0622,0.0624,0.0676,0.0687,0.0707,0.071,0.0703,0.0709,0.0709,0.0755,0.0755,0,0,0,0.0602,0.0615,0.0616,0.064,0.0639,0.0623,0.0625,0.0685,0.0684,0.0711,0.0704,0.0709,0.071,0.0755,0.0755,0.0797,0,0,0,0.0601,0.061,0.0615,0.062,0.0638,0.0659,0.0633,0.0681,0.0686,0.0704,0.0709,0.0711,0.0755,0.0755,0.0796,0.0743,0,0,0,0.0603,0.061,0.0614,0.062,0.0628,0.0657,0.066,0.0682,0.0682,0.0708,0.0711,0.0755,0.0755,0.0795,0.0743,0.0865,0,0,0,0.0607,0.0599,0.0614,0.059,0.0628,0.0583,0.0659,0.0658,0.0673,0.071,0.0755,0.0755,0.0795,0.0744,0.0863,0.0692,0,0,0,0.0589,0.0597,0.0574,0.0588,0.049,0.058,0.0568,0.0642,0.0685,0.0742,0.0743,0.0796,0.0743,0.0865,0.0689,0,0,0,0,0.0561,0.0514,0.0504,0.0443,0.0447,0.0501,0.0552,0.0631,0.0736,0.0694,0.0783,0.0746,0.0824,0.0717,0.0755,0.0755,0.0755,0.0755,0.0755,0.049,0.0441,0.0346,0.0301,0.0324,0.0427,0.0515,0.0627,0.0691,0.0765,0.0775,0.0869,0.0755,0.0804,0.0804,0.0804,0.0805,0.0805,0.0805,0.0319,0.0203,0.0199,0.0113,0.0201,0.027,0.0493,0.0617,0.0784,0.0795,0.0874,0.0754,0.0809,0.0808,0.0807,0.0807,0.0806,0.0806,0.0806,0.0178,0.0104,0.0078,0.0002,0.0104,0.0307,0.0465,0.066,0.0791,0.0845,0.0839,0.0906,0.0916,0.0963,0.0964,0.0964,0.0964,0.0964,0.0965,0.0023,-0.0037,-0.005,-0.0051,0.0056,0.0245,0.0524,0.0601,0.0779,0.0813,0.0893,0.0923,0.0918,0.0925,0.0969,0.0969,0.0968,0.0967,0.0967,-0.0242,-0.0153,-0.016,-0.0093,0.007,0.0198,0.0431,0.0599,0.0705,0.0753,0.0834,0.084,0.0816,0.0814,0.0816,0.083,0.0828,0.0826,0,-0.0334,-0.0334,-0.0252,-0.0145,-0.0031,0.0141,0.0235,0.0361,0.0572,0.0588,0.066,0.0745,0.0751,0.0711,0.0707,0.07,0,0,0,-0.0467,-0.0394,-0.0335,-0.0227,-0.0077,0.0075,0.0255,0.032,0.0564,0.0578,0.0776,0.0789,0.0726,0.0984,0.096,0.0954,0.0964,0,0]},{"header":{"parameterUnit":"m.s-1","parameterCategory":2,"la1":30.2992,"la2":30.254,"lo1":-89.0895,"lo2":-89.0443,"dy":0.0025,"dx":0.0025,"nx":19,"ny":19,"refTime":"2026-05-05T03:00:00:Z","depth":"4","parameterNumber":3,"parameterNumberName":"V-component_of_CURRENTS"},"data":[0,0,0,-0.0124,-0.0124,-0.0099,-0.0098,-0.0006,-0.0005,0,0,0,0,0,0,0,0,0,0,0,-0.0128,-0.0128,-0.0124,-0.0124,-0.0099,-0.0098,-0.0006,-0.0005,0,0,0,0,0,0,0,0,0,0,0,-0.0128,-0.0128,-0.0128,-0.0124,-0.0099,-0.0098,-0.0007,-0.0038,0,0,0,0,0,0,0,0,0,0,-0.0068,-0.0087,-0.0128,-0.0128,-0.0124,-0.0099,-0.0098,-0.004,-0.0036,-0.0004,0,-0.0006,0,-0.0009,0.0001,0.0001,0,0,0,-0.0112,-0.0091,-0.0084,-0.0128,-0.0124,-0.0099,-0.0107,-0.0038,-0.0033,0.0002,-0.0005,-0.0002,-0.0007,0.0002,0.0002,0.0096,0.0096,0,0,-0.0113,-0.0119,-0.0088,-0.0082,-0.0123,-0.0108,-0.0106,-0.0036,-0.0031,-0.0004,0.0,-0.0006,0.0002,0.0003,0.0096,0.0096,0,0,0,-0.0125,-0.012,-0.0116,-0.0085,-0.0088,-0.0107,-0.0105,-0.0034,-0.0034,0.0001,-0.0005,0.0003,0.0004,0.0095,0.0096,0.012,0,0,0,-0.0125,-0.0128,-0.0117,-0.0119,-0.009,-0.007,-0.0106,-0.0038,-0.0031,-0.0005,0.0003,0.0005,0.0095,0.0096,0.0119,0.0143,0,0,0,-0.0128,-0.0128,-0.0127,-0.012,-0.0115,-0.0072,-0.0067,-0.0037,-0.0034,0.0002,0.0005,0.0095,0.0096,0.0117,0.0141,0.0227,0,0,0,-0.0131,-0.0121,-0.0127,-0.0106,-0.0115,-0.0072,-0.0067,-0.0037,-0.0007,0.0003,0.0095,0.0096,0.0117,0.0139,0.0224,0.0176,0,0,0,-0.0118,-0.012,-0.0103,-0.0108,-0.0047,-0.0074,-0.002,0.001,0.0017,0.0078,0.0079,0.0119,0.014,0.0226,0.0218,0,0,0,0,-0.0097,-0.0073,-0.0063,-0.0023,-0.0009,0.0029,0.0034,0.0037,0.0079,0.0035,0.0127,0.014,0.0194,0.0157,0.0099,0.0099,0.0099,0.0099,0.0099,-0.0069,-0.0034,0.0038,0.0084,0.0108,0.0105,0.0114,0.0127,0.0115,0.0131,0.0165,0.0254,0.0214,0.0164,0.0164,0.0164,0.0164,0.0164,0.0164,0.003,0.0101,0.0154,0.0242,0.0266,0.0305,0.0253,0.0211,0.024,0.0203,0.0255,0.0189,0.0167,0.0166,0.0166,0.0165,0.0165,0.0165,0.0165,0.0083,0.0135,0.0201,0.0363,0.0438,0.0418,0.0407,0.0341,0.0302,0.0312,0.0329,0.03,0.0295,0.0364,0.0364,0.0365,0.0365,0.0365,0.0366,0.0133,0.0204,0.0339,0.0483,0.0565,0.0572,0.0499,0.0442,0.0394,0.0374,0.0353,0.0323,0.0316,0.0309,0.0373,0.0372,0.0371,0.037,0.037,0.0223,0.026,0.0444,0.0555,0.0687,0.0658,0.0607,0.049,0.0485,0.0473,0.0417,0.0412,0.0416,0.0408,0.0403,0.0499,0.0498,0.0498,0,0.0276,0.0316,0.0532,0.0665,0.0704,0.0681,0.0576,0.0491,0.0471,0.0489,0.0482,0.042,0.0415,0.0417,0.041,0.0404,0,0,0,0.036,0.0417,0.0545,0.0668,0.0706,0.0573,0.0508,0.048,0.0516,0.0442,0.049,0.0492,0.0338,0.0395,0.0392,0.0384,0.0373,0,0]}]]